Hourly Data Report for January 20, 2022

IQALUIT CLIMATE
NUNAVUT
Current Station Operator: ECCC - MSC

63°44'50.000" N
68°32'40.000" W
33.50 m
2402592
71321
XFB

Download Data

Hourly Data (January 2022)
Hourly Data Report for January 20, 2022
TIME
LST
Temp Definition
°C
Dew Point Definition
°C
Rel Hum Definition
%
Precip. Amount Definition
mm

Wind Dir Definition
10's deg

Wind Spd Definition
km/h
Visibility Definition
km
Stn Press Definition
kPa
Hmdx Definition


Wind Chill Definition


Weather Definition


00:00 -29.5 -32.6 74 0.1 1 7   99.86   -37 LegendNANA
01:00 -30.6 -34.0 72 0.3 4 3   99.87   -34 LegendNANA
02:00 -29.3 -32.5 74 0.0 4 4   99.90   -34 LegendNANA
03:00 -27.9 -31.0 75 0.0 2 3   99.92   -31 LegendNANA
04:00 -31.9 -35.1 74 0.5 2 5   99.93   -38 LegendNANA
05:00 -29.0 -32.0 75 0.0 3 2   99.94   -31 LegendNANA
06:00 -29.5 -32.6 74 0.4 3 4   99.97   -34 LegendNANA
07:00 -30.8 -34.1 73 0.0 1 2   99.99   -33 LegendNANA
08:00 -29.9 -33.1 74 0.0 3 7   99.97   -37 LegendNANA
09:00 -29.5 -32.8 73 0.0 1 3   99.98   -33 LegendNANA
10:00 -30.4 -33.6 74 0.0 3 4   99.98   -35 LegendNANA
11:00 -29.2 -32.5 72 0.2 3 4   99.94   -34 LegendNANA
12:00 -30.0 -33.8 69 0.1 0 1   99.87   -31 LegendNANA
13:00 -29.1 -32.7 71 0.2 1 3   99.88   -32 LegendNANA
14:00 -31.5 -35.1 70 0.2 2 5   99.88   -37 LegendNANA
15:00 -32.2 -35.9 70 0.3 1 3   99.89   -36 LegendNANA
16:00 -30.9 -34.3 72 0.2 33 7   99.91   -38 LegendNANA
17:00 -31.1 -34.5 72 0.0 1 5   99.92   -37 LegendNANA
18:00 -31.5 -35.0 71 0.0 34 4   99.97   -36 LegendNANA
19:00 -34.3 -38.1 69 0.2 36 6   99.97   -41 LegendNANA
20:00 -33.0 -36.4 72 0.2 27 1   99.96   -34 LegendNANA
21:00 -33.1 -36.6 71 0.0 35 6   99.96   -40 LegendNANA
22:00 -34.0 -37.6 70 0.3 35 5   99.97   -40 LegendNANA
23:00 -32.3 -35.5 73 0.4 8 3   99.99   -36 LegendNANA

Notes on Data Quality.

Legend

  • E = Estimated
  • M = Missing
  • NA = Not Available*
  • [empty] = Indicates an unobserved value
Date modified: